Berlin, NH

11:29 AM EDT on August 22, 2017 (GMT -0400)
Berlin Municipal

Weather History for KBML - January, 2006

Change the Weather History Date:

Tuesday, January 10, 2006

  Actual Average Record
Temperature  
Mean Temperature 20 °F -  
Max Temperature 33 °F 21 °F 46 °F (2016)
Min Temperature 7 °F 1 °F -24 °F (2004)
Degree Days  
Heating Degree Days 45    
Moisture  
Dew Point 16 °F    
Average Humidity 79    
Maximum Humidity 100    
Minimum Humidity 61    
Precipitation  
Precipitation 0.00 in - - ()
Sea Level Pressure  
Sea Level Pressure 30.32 in    
Wind  
Wind Speed 6 mph (WNW)    
Max Wind Speed 12 mph    
Max Gust Speed 21 mph    
Visibility 7 miles    
Events Fog , Snow    
Averages and records for this station are not official NWS values.
T = Trace of Precipitation, MM = Missing Value Source: NWS Daily Summary

Daily Weather History Graph

Daily Weather History Graph

Search for Another Location

Airport or City:

Trip Planner

Search our weather history database for the weather conditions in past years. The results will help you decide how hot, cold, wet, or windy it might be!

Date:

Astronomy

Jan. 10, 2006 Rise Set
Actual Time 7:20 AM EST 4:24 PM EST
Civil Twilight 6:47 AM EST 4:57 PM EST
Nautical Twilight 6:11 AM EST 5:33 PM EST
Astronomical Twilight 5:35 AM EST 6:08 PM EST
Moon 12:53 PM EST (1/10) 4:19 AM EST (1/10)
Length of Visible Light 10h 09m
Length of Day
9h 04m
Waxing Gibbous, 87% of the Moon is Illuminated
Jan 10
Waxing Gibbous
Jan 14
Full
Jan 22
Last Quarter
Jan 29
New
Feb 5
First Quarter

Hourly Weather History & Observations

Time (EST) Temp. Windchill Dew Point Humidity Pressure Visibility Wind Dir Wind Speed Gust Speed Precip Events Conditions
12:52 AM 30.0 °F 22.4 °F 24.1 °F 79% 30.13 in 5.0 mi WNW 8.1 mph 16.1 mph 0.00 in Snow Light Snow
1:52 AM 30.0 °F 21.1 °F 24.1 °F 79% 30.17 in 6.0 mi WNW 10.4 mph 19.6 mph 0.00 in Snow Light Snow
2:52 AM 30.0 °F 22.4 °F 24.1 °F 79% 30.20 in 4.0 mi NW 8.1 mph 18.4 mph 0.00 in Snow Light Snow
3:52 AM 28.9 °F 19.8 °F 21.9 °F 75% 30.22 in 9.0 mi WNW 10.4 mph 20.7 mph 0.00 in   Mostly Cloudy
4:52 AM 28.9 °F 21.9 °F 21.0 °F 72% 30.25 in 10.0 mi WNW 6.9 mph - N/A   Overcast
5:44 AM 28.4 °F 23.3 °F 19.4 °F 69% 30.22 in 10.0 mi NW 4.6 mph - N/A   Overcast
5:52 AM 27.0 °F 18.7 °F 19.9 °F 75% 30.28 in 10.0 mi WNW 8.1 mph - N/A   Overcast
6:52 AM 26.1 °F 17.6 °F 17.1 °F 69% 30.31 in 10.0 mi NW 8.1 mph - N/A   Mostly Cloudy
7:13 AM 26.6 °F 19.1 °F 17.6 °F 69% 30.26 in 10.0 mi WNW 6.9 mph - N/A   Scattered Clouds
7:52 AM 25.0 °F 18.1 °F 18.0 °F 75% 30.34 in 10.0 mi NW 5.8 mph - N/A   Mostly Cloudy
8:52 AM 27.0 °F 18.7 °F 19.0 °F 72% 30.38 in 10.0 mi WNW 8.1 mph - N/A   Overcast
9:22 AM 28.4 °F 20.4 °F 19.4 °F 69% 30.33 in 10.0 mi West 8.1 mph 16.1 mph N/A   Mostly Cloudy
9:52 AM 27.0 °F 16.7 °F 19.0 °F 72% 30.39 in 10.0 mi West 11.5 mph 18.4 mph N/A   Mostly Cloudy
10:52 AM 30.0 °F 20.5 °F 19.9 °F 66% 30.40 in 10.0 mi WNW 11.5 mph 16.1 mph N/A   Mostly Cloudy
11:26 AM 28.4 °F 22.2 °F 19.4 °F 69% 30.33 in 10.0 mi West 5.8 mph - 0.00 in   Mostly Cloudy
11:52 AM 30.0 °F 23.2 °F 21.0 °F 69% 30.37 in 9.0 mi West 6.9 mph - 0.00 in Snow Light Snow
12:21 PM 30.2 °F 23.4 °F 21.2 °F 69% 30.31 in 10.0 mi Variable 6.9 mph - 0.00 in   Overcast
12:52 PM 32.0 °F 28.7 °F 21.9 °F 66% 30.36 in 10.0 mi WNW 3.5 mph - 0.00 in   Overcast
1:52 PM 32.0 °F 27.5 °F 21.0 °F 64% 30.36 in 10.0 mi West 4.6 mph - N/A   Overcast
2:02 PM 32.0 °F 28.7 °F 21.2 °F 64% 30.31 in 10.0 mi Variable 3.5 mph - N/A   Overcast
3:52 PM 33.1 °F - 21.0 °F 61% 30.38 in 10.0 mi Calm Calm - N/A   Overcast
4:52 PM 28.9 °F - 21.0 °F 72% 30.38 in 10.0 mi Calm Calm - N/A   Overcast
5:52 PM 23.0 °F - 19.9 °F 88% 30.37 in 10.0 mi Calm Calm - N/A   Clear
6:52 PM 18.0 °F - 15.1 °F 88% 30.37 in 9.0 mi Calm Calm - N/A   Clear
7:10 PM 12.2 °F - 10.4 °F 92% 30.30 in 1.2 mi Calm Calm - N/A   Clear
7:13 PM 12.2 °F - 8.6 °F 85% 30.30 in 0.5 mi Calm Calm - N/A Fog Light Freezing Fog
7:23 PM 14.0 °F - 12.2 °F 93% 30.30 in 1.8 mi Calm Calm - N/A   Partly Cloudy
7:29 PM 12.2 °F - 10.4 °F 92% 30.30 in 1.0 mi Calm Calm - N/A   Mist
7:36 PM 14.0 °F - 12.2 °F 93% 30.30 in 0.5 mi Calm Calm - N/A Fog Light Freezing Fog
7:52 PM 12.0 °F - 9.0 °F 88% 30.38 in 0.5 mi Calm Calm - N/A Fog Light Freezing Fog
8:03 PM 15.8 °F - 10.4 °F 79% 30.32 in 1.0 mi Calm Calm - N/A   Mostly Cloudy
8:05 PM 15.8 °F - 12.2 °F 86% 30.32 in 2.5 mi Calm Calm - N/A   Scattered Clouds
8:12 PM 12.2 °F - 12.2 °F 100% 30.32 in 4.0 mi Calm Calm - N/A   Scattered Clouds
8:52 PM 9.0 °F 2.4 °F 7.0 °F 92% 30.38 in 9.0 mi SSE 3.5 mph - N/A   Clear
9:31 PM 8.6 °F - 5.0 °F 85% 30.31 in 8.0 mi Calm Calm - N/A   Scattered Clouds
9:34 PM 10.4 °F - 6.8 °F 85% 30.31 in 2.5 mi Calm Calm - N/A   Mostly Cloudy
9:43 PM 8.6 °F - 5.0 °F 85% 30.30 in 3.0 mi Calm Calm - N/A   Scattered Clouds
9:52 PM 10.0 °F - 6.1 °F 84% 30.38 in 8.0 mi Calm Calm - N/A   Scattered Clouds
10:52 PM 7.0 °F - 3.9 °F 87% 30.35 in 7.0 mi Calm Calm - N/A   Clear
11:52 PM 8.1 °F - 5.0 °F 87% 30.35 in 10.0 mi Calm Calm - N/A   Clear